Regional Weather Roundup
Issued by NWS Cleveland, OH

Home | Current Version | Previous Version | Graphics & Text | Print | Product List | Glossary On
Versions: 1 2 3 4 5 6 7 8 9 10 11 12 13 14 15 16 17 18 19 20 21 22 23 24 25 26 27 28 29 30 31 32 33 34 35 36 37 38 39 40 41 42 43 44 45 46 47 48 49 50
655
ASUS41 KCLE 101502
RWRCLE
OHIO REGIONAL WEATHER ROUNDUP
NATIONAL WEATHER SERVICE CLEVELAND, OH
1000 AM EST WED FEB 10 2016

NOTE: "FAIR" INDICATES FEW OR NO CLOUDS BELOW 12,000 FEET WITH NO
SIGNIFICANT WEATHER AND/OR OBSTRUCTIONS TO VISIBILITY.

OHZ001>008-015>018-024>027-034-035-043-044-101600-
   NORTHWEST OHIO

CITY           SKY/WX    TMP DP  RH WIND       PRES   REMARKS
DEFIANCE       LGT SNOW  20  15  81 W9        29.88R VSB 3/4 WCI   9
FINDLAY        LGT SNOW  20  13  74 W20       29.86R WCI   4
TOLEDO EXPRESS CLOUDY    20  13  74 W15       29.85R WCI   6
TOLEDO EXEC    CLOUDY    22  12  65 W15       29.85R WCI   9
LIMA           LGT SNOW  16  12  84 W16       29.88R FOG     WCI   1
$$

OHZ009>014-019>023-028>033-038-089-101600-
   NORTHEAST OHIO

CITY           SKY/WX    TMP DP  RH WIND       PRES   REMARKS
CLE-HOPKINS    LGT SNOW  20  15  81 SW18G24   29.82R WCI   5
CLE-LAKEFRONT  LGT SNOW  22  17  81 SW20      29.79R WCI   7
CUY CO. ARPT   LGT SNOW  21  19  93 W17G23    29.77R WCI   7
LORAIN-ELYRIA  LGT SNOW  21  14  74 W17       29.80S WCI   7
ASHTABULA      CLOUDY    22  16  78 SW16      29.74R WCI   8
AKRON-CANTON   LGT SNOW  18  13  80 SW14      29.79R WCI   4
WOOSTER        LGT SNOW  18  13  80 W12       29.81R WCI   5
MANSFIELD      LGT SNOW  17  13  84 W10       29.81R FOG     WCI   5
YOUNGSTOWN     LGT SNOW  21  15  78 SW17G26   29.76R FOG     WCI   7
$$

OHZ042-051>053-060>062-070>072-077>081-101600-
  SOUTHWEST OHIO

CITY           SKY/WX    TMP DP  RH WIND       PRES   REMARKS
CINC-COVINGTON FLURRIES  15   7  70 W12G20    30.00R WCI   2
CINC-LUNKEN    LGT SNOW  16   8  71 W15       30.04R WCI   1
HAMILTON       LGT SNOW  17  10  74 W13       30.02R WCI   4
DAYTON         LGT SNOW  15  10  80 W17       29.94R WCI  -1
WRIGHT-PAT AFB LGT SNOW  16  10  77 W15       29.94R WCI   1
DAYTON GENERAL LGT SNOW  15   7  70 W14G23    29.95R WCI   0
WILMINGTON     LGT SNOW  14   8  77 W20       29.93R WCI  -3
$$

OHZ036-037-039>041-045>050-054>059-063>069-073>076-082>088-101600-
  CENTRAL AND SOUTHEAST OHIO

CITY           SKY/WX    TMP DP  RH WIND       PRES   REMARKS
COLUMBUS       LGT SNOW  17  11  77 W14G20    29.91R VSB 1   WCI   3
OSU AIRPORT    LGT SNOW  16  11  80 W17       29.89R WCI   0
BOLTON FIELD   LGT SNOW  16  10  79 W10G18    29.91R WCI   3
RICKENBACK AFB NOT AVBL
NEWARK         LGT SNOW  17  11  77 MISG      29.89R
MARION         CLOUDY    18  11  74 W14       29.86R HAZE    WCI   4
LANCASTER      LGT SNOW  17  11  77 W15G22    29.92R VSB 1   WCI   2
ZANESVILLE     LGT SNOW  18  11  74 SW10      29.89S WCI   6
NEW PHILLY     LGT SNOW  17  11  77 SW7       29.86S WCI   8
$$




USA.gov is the U.S. government's official web portal to all federal, state and local government web resources and services.